Theta_e
298 295 292 295 296 294 293 292 292 295 299 296 297 298 300 303 303 304 305 306 307 309 312 313 316 320 323 329 333 338 342 348 347 345 343 343 342 344 343 345 348 348 349 351
295 292 297 296 295 294 293 292 292 296 298 296 297 297 300 302 302 304 304 306 307 309 311 313 315 317 323 325 332 334 339 345 347 347 348 346 346 345 343 343 348 348 347 349
293 295 297 295 295 293 293 292 293 293 296 296 296 294 297 300 302 303 305 306 307 307 308 310 312 316 320 324 327 331 336 340 346 350 349 343 347 347 346 345 346 346 345 345
295 298 295 294 293 295 291 296 296 294 292 289 295 287 295 298 299 301 304 305 307 307 310 310 312 315 318 321 325 328 332 338 340 344 343 344 341 340 344 344 346 345 347 345
294 294 293 293 295 296 294 296 295 294 293 291 292 289 293 296 296 299 303 305 306 308 308 308 310 313 315 317 321 326 329 330 336 340 344 343 344 346 340 344 341 345 346 346
297 298 297 297 297 297 298 295 293 292 291 286 292 290 291 294 297 300 303 304 305 306 308 310 313 315 315 318 319 324 327 329 331 336 338 340 342 335 333 337 336 335 338 341
295 296 299 298 295 298 296 293 286 285 285 285 294 290 293 298 300 302 301 303 306 308 308 309 310 312 315 317 318 320 324 326 329 330 335 335 337 335 335 333 331 332 331 332
290 289 295 298 296 295 295 294 287 281 283 286 291 287 292 299 302 302 303 305 306 307 309 310 311 314 315 317 317 318 320 323 327 328 330 331 331 330 330 331 328 328 330 332
288 289 297 299 300 298 295 290 296 289 289 286 289 293 298 300 300 301 303 305 305 307 309 310 311 312 314 317 319 319 320 321 325 326 327 327 328 328 326 329 331 328 331 328
295 288 296 297 298 297 295 298 290 291 282 281 288 288 290 296 298 300 302 303 304 307 308 310 310 312 313 315 318 320 321 321 323 325 326 326 326 326 325 327 328 329 330 329
296 292 292 296 294 293 294 292 293 293 291 284 283 288 298 297 299 300 301 302 303 305 308 309 310 311 314 315 314 317 319 319 320 322 323 324 324 322 324 325 327 329 331 330
297 294 288 291 298 297 296 294 294 289 286 289 288 288 300 299 300 301 301 302 304 307 308 309 309 310 311 312 312 314 315 315 318 320 318 319 322 322 322 323 326 329 329 329
296 291 286 288 293 295 293 295 294 293 290 287 284 288 299 300 300 301 301 302 303 306 307 308 308 308 309 310 312 314 316 315 316 315 314 317 321 321 322 323 325 327 328 328
297 292 289 284 288 292 289 291 293 291 286 287 287 290 294 296 297 299 302 303 304 306 305 306 306 306 306 308 309 309 310 310 312 315 315 316 316 318 320 321 324 325 326 326
294 287 289 290 291 291 289 289 289 288 289 286 289 289 293 296 297 300 302 302 302 303 303 304 304 305 305 304 306 307 307 308 307 308 309 312 314 315 316 317 319 322 323 325
295 288 289 286 289 289 287 289 289 289 290 290 290 289 297 298 300 300 300 299 298 301 302 303 302 302 302 303 305 305 306 306 307 305 305 308 310 312 315 316 316 318 320 322
291 289 286 282 287 287 284 288 289 290 291 291 288 293 298 298 299 299 299 299 298 300 302 301 301 301 302 302 302 303 304 305 305 305 304 306 308 308 311 313 314 317 318 320
290 289 288 283 285 278 289 296 295 292 294 296 296 297 298 297 298 299 300 299 300 302 301 301 301 302 302 303 303 304 304 304 304 303 304 304 304 306 308 310 311 314 317 318
293 289 284 282 282 286 288 293 292 290 290 296 296 296 297 296 296 297 300 301 300 301 301 302 302 302 302 302 303 303 303 303 303 302 303 303 304 304 305 306 309 311 312 315
291 292 287 283 280 278 288 295 297 296 286 293 293 292 293 294 286 292 299 299 299 300 301 300 301 301 301 302 303 302 301 301 301 302 303 303 303 303 303 304 306 308 310 310
285 286 283 284 283 287 293 295 297 285 288 294 295 294 294 291 293 296 298 298 300 300 299 300 300 300 301 301 301 299 299 299 302 302 302 302 302 302 303 303 305 306 307 308
287 285 284 285 282 280 294 294 288 294 296 295 296 295 295 296 297 297 297 297 298 296 298 298 297 297 299 300 299 298 297 298 299 299 300 300 301 301 301 302 303 304 305 306
286 291 289 289 289 294 296 295 297 297 295 296 296 297 295 293 295 295 295 296 295 296 294 295 296 297 297 297 298 296 296 297 298 297 298 299 298 298 298 300 301 302 303 303
292 294 291 290 292 293 295 296 297 297 296 297 297 296 295 294 295 295 296 295 294 295 293 294 293 293 294 295 295 295 296 297 296 295 296 297 296 298 299 299 300 300 300 301
292 293 290 291 293 294 294 296 296 296 297 296 297 296 295 295 295 295 295 294 293 294 293 293 292 292 292 294 294 295 295 296 295 295 295 296 296 297 297 298 298 298 300 301
294 292 291 289 294 293 294 297 297 295 295 296 294 294 296 296 296 296 296 294 294 293 292 292 292 292 292 292 292 293 294 295 293 293 294 296 295 296 296 296 297 296 295 295
Wind_Speed
2 6 8 9 5 2 1 4 8 10 10 6 11 10 12 10 8 10 8 5 7 8 8 8 8 11 12 12 12 13 13 14 12 12 13 12 13 12 11 11 12 14 10 15
4 11 10 3 5 5 5 6 9 10 11 7 10 12 10 10 11 10 9 8 9 7 8 10 8 8 10 13 13 13 14 13 14 11 11 9 11 11 11 10 12 13 12 10
9 3 5 10 6 6 6 7 5 7 4 4 7 11 10 8 8 10 12 11 9 10 11 11 10 7 9 12 13 13 14 13 13 13 9 6 7 4 9 12 12 13 13 12
8 6 10 8 9 11 11 14 12 9 6 11 2 11 10 9 11 10 11 10 11 13 11 8 10 11 9 11 10 12 13 15 14 12 12 14 14 14 13 13 12 11 15 15
3 6 8 9 15 10 8 4 5 7 9 5 10 9 11 6 11 14 15 14 11 10 10 13 13 13 14 9 10 11 13 14 15 15 15 12 12 10 8 6 11 10 10 12
11 1 4 6 3 9 2 7 3 2 5 12 15 13 8 11 12 13 10 8 9 12 12 14 13 13 13 13 9 10 13 16 16 17 18 18 15 12 9 9 10 8 7 8
9 15 10 9 12 11 7 9 7 7 9 13 8 14 13 9 13 16 12 11 11 11 10 11 12 14 15 15 14 10 13 17 17 19 19 18 16 12 12 11 9 9 8 8
8 9 7 7 13 11 8 8 9 10 8 9 1 9 6 7 10 6 4 9 9 10 9 10 11 12 13 14 13 12 13 16 15 17 17 14 13 9 9 10 8 8 7 7
4 5 2 6 11 8 10 10 7 13 5 8 9 11 9 9 6 3 6 9 11 11 12 12 11 11 11 11 11 11 12 13 14 15 11 11 10 10 9 10 9 8 8 8
3 9 5 4 2 4 7 5 5 5 8 16 8 7 7 7 6 3 6 10 16 13 13 11 11 10 11 11 9 8 6 9 12 13 11 10 11 11 9 7 10 11 10 10
5 4 9 6 6 12 6 6 4 5 4 8 12 7 3 1 1 6 6 12 14 16 15 13 12 10 9 8 10 7 4 4 4 4 4 6 8 7 6 7 10 10 10 11
4 5 8 13 9 4 5 8 4 7 5 5 7 9 1 2 3 7 15 15 16 10 13 13 11 10 10 11 11 6 7 7 4 4 4 6 7 7 8 10 8 9 11 11
3 4 5 5 5 4 8 6 1 4 2 7 8 6 6 6 16 14 14 17 14 9 8 8 9 9 9 11 12 11 9 6 6 4 4 9 10 11 9 8 9 14 12 11
3 5 11 12 7 2 3 7 6 5 4 12 13 20 20 15 14 16 14 12 11 7 6 8 10 10 11 10 11 13 14 11 13 13 13 10 8 11 8 10 12 14 14 14
4 6 9 13 15 14 15 18 17 19 19 19 20 22 19 18 12 10 9 11 13 8 7 8 9 10 11 11 10 11 12 11 9 9 11 14 13 10 9 9 12 13 13 15
11 4 6 12 12 18 20 19 19 19 19 19 20 24 15 5 7 8 9 10 12 13 9 9 11 12 12 12 12 10 12 12 10 9 8 9 9 7 9 8 6 10 14 15
7 7 6 12 7 6 11 13 14 10 10 9 13 9 5 9 9 11 13 15 16 16 11 12 13 13 14 13 13 13 13 12 12 12 12 12 12 12 11 8 7 9 10 11
9 9 5 6 4 6 5 2 3 4 6 8 10 10 8 7 11 16 17 19 17 10 12 16 16 16 17 15 14 14 15 14 13 13 13 13 13 13 13 12 11 9 8 10
14 8 4 4 5 7 2 3 1 2 5 6 7 8 9 14 19 16 9 9 11 16 19 19 17 17 18 18 16 16 16 16 16 15 15 14 14 15 14 15 14 12 11 10
6 8 5 4 4 4 3 5 3 1 9 3 4 8 13 15 12 16 17 19 22 21 19 20 20 21 19 16 16 18 19 19 19 18 17 15 15 16 17 17 16 14 14 13
5 3 8 6 5 3 3 2 2 5 4 4 8 12 16 16 16 21 21 21 20 20 22 24 23 20 18 18 19 20 20 21 19 18 18 19 19 18 17 17 17 16 15 15
4 5 3 4 4 4 1 1 3 7 10 11 14 15 17 18 20 21 21 22 23 22 23 24 18 17 19 20 20 22 20 17 19 22 22 22 19 14 14 18 17 17 16 17
3 3 1 6 2 2 2 5 7 8 12 14 16 18 18 18 19 20 20 23 20 21 19 19 23 23 20 21 18 20 21 20 22 18 17 14 15 14 14 15 15 13 17 15
2 3 4 4 3 2 7 4 7 11 14 16 17 18 18 20 21 22 23 18 16 19 20 19 22 21 22 20 21 20 19 17 18 19 17 16 17 18 17 13 14 15 15 15
3 2 3 5 2 9 3 8 13 14 15 18 19 19 20 21 22 23 22 21 17 17 20 18 18 18 20 21 20 20 19 19 17 16 16 15 14 16 14 14 13 13 15 15
2 2 2 3 6 6 14 14 17 16 19 18 19 21 20 20 22 25 22 19 17 19 20 18 19 15 21 19 19 20 18 15 16 16 14 13 12 12 11 12 13 21 26 22
Wind_Direction
54 217 218 222 210 162 208 261 276 277 277 302 282 282 279 282 288 286 288 273 286 281 291 303 290 275 260 239 231 228 222 213 198 194 195 197 207 213 218 214 208 215 206 199
194 241 232 201 196 219 232 267 270 284 277 206 275 271 269 272 278 275 284 267 262 257 282 297 308 282 261 250 236 229 229 221 212 206 198 199 207 211 215 220 216 216 213 206
224 192 172 193 201 223 228 223 231 259 318 233 278 270 259 246 248 258 264 281 281 256 278 290 298 279 278 260 240 237 226 221 226 227 198 160 152 173 196 210 211 213 215 212
247 230 221 208 229 214 245 213 242 258 262 277 235 286 263 256 249 251 264 258 253 283 284 285 282 285 255 256 261 248 237 220 210 207 211 205 194 196 207 203 207 214 216 217
202 177 185 208 233 188 262 185 251 262 263 266 242 258 275 221 245 252 256 257 264 265 288 294 290 288 293 278 258 252 244 228 217 204 206 205 211 204 192 191 200 201 204 216
258 233 253 250 173 198 286 275 267 189 251 250 256 249 257 255 257 275 263 254 277 295 300 297 291 289 284 287 265 242 233 235 218 209 204 207 210 195 181 188 193 191 199 204
240 244 244 227 261 248 238 271 273 248 225 259 280 261 263 259 255 267 295 309 311 318 312 308 304 306 301 292 290 263 241 237 220 210 203 206 206 191 185 173 185 181 185 196
258 264 207 185 215 257 226 242 255 268 259 274 194 254 260 252 278 274 359 342 334 334 342 337 324 311 308 310 302 281 263 251 229 215 205 197 192 189 193 189 181 192 193 191
210 244 275 262 272 247 256 231 274 262 256 259 249 255 260 245 252 357 355 359 354 343 332 328 331 328 314 316 304 282 270 261 240 215 198 187 185 190 183 177 177 177 178 172
287 278 252 286 238 175 229 148 203 209 269 269 245 265 259 261 266 328 336 352 345 331 318 327 324 329 335 317 301 281 268 267 243 207 193 194 190 195 191 183 182 178 179 179
329 252 245 318 252 270 241 225 228 288 236 267 280 260 115 257 270 316 343 328 330 329 321 318 322 318 310 335 323 303 256 173 240 196 214 242 222 209 210 216 187 192 177 184
358 294 256 258 271 288 256 276 259 231 225 253 291 272 38 356 355 340 320 322 321 331 333 327 327 333 332 335 333 4 59 15 6 248 222 236 247 217 206 226 235 219 200 191
298 218 262 245 236 251 258 253 190 26 46 214 258 261 162 310 325 326 323 316 315 312 340 350 358 10 27 14 4 351 356 29 15 57 340 288 254 225 220 213 228 243 218 211
115 259 246 262 298 329 290 274 248 219 239 275 251 279 287 299 312 317 329 336 331 328 344 356 357 359 0 16 8 5 13 1 2 339 338 334 329 289 247 233 233 228 233 219
216 249 256 266 265 267 265 258 258 249 253 256 277 283 292 299 306 308 311 324 333 316 335 350 351 345 346 358 347 354 347 358 354 4 342 330 324 319 295 250 248 242 238 233
160 259 253 267 267 266 266 262 258 256 257 258 269 276 300 296 282 292 307 320 315 302 303 323 330 330 325 324 322 336 327 327 332 322 306 294 295 298 287 263 252 256 249 245
206 239 254 275 282 295 262 263 241 241 245 256 262 293 313 296 300 315 312 304 295 292 286 308 318 318 319 316 318 320 308 305 307 303 299 298 303 294 296 300 294 267 258 256
229 220 224 278 287 244 58 47 95 232 254 237 265 276 301 316 308 300 297 291 291 299 308 315 317 311 312 308 300 293 295 295 291 287 286 284 281 283 284 280 274 273 265 255
214 197 200 239 233 308 182 192 197 341 291 337 300 314 312 323 314 295 343 330 307 303 307 306 303 297 300 296 291 293 293 291 286 282 281 280 281 281 279 275 274 273 270 262
149 179 210 167 245 265 106 117 46 150 260 75 342 317 318 324 298 297 317 307 300 297 296 296 296 296 289 289 292 293 293 288 282 282 282 279 279 275 273 273 269 266 261 259
145 178 213 232 253 263 82 355 280 255 37 313 301 301 302 296 286 297 298 296 294 297 304 307 298 290 290 291 290 286 289 281 281 283 281 277 279 271 270 271 265 259 257 257
192 178 194 206 237 257 66 227 289 342 297 286 297 303 299 295 298 300 297 296 298 300 307 303 287 287 287 288 287 284 279 279 279 280 276 273 265 261 268 270 261 254 250 246
225 281 310 219 305 105 225 273 290 286 286 294 298 302 305 294 289 294 293 297 299 294 308 298 289 285 288 291 290 288 282 282 279 272 267 265 271 270 259 257 264 259 247 243
174 218 256 275 149 273 298 286 262 303 298 304 299 299 300 297 295 295 299 298 283 292 306 295 290 285 293 289 287 277 279 273 278 273 268 271 271 265 260 253 252 246 245 247
309 264 260 259 292 320 200 298 315 309 302 304 305 306 300 293 291 290 297 296 288 295 301 289 289 283 281 293 283 285 278 278 274 273 271 267 261 257 254 246 242 240 241 240
222 268 255 328 339 291 301 315 314 308 312 310 308 306 301 289 288 289 294 295 278 297 299 288 289 281 286 287 286 283 279 274 272 268 263 260 260 259 255 253 253 240 239 238